Orbital Elements at Epoch 2459000.5 (2020-May-31.0) TDB
Reference: JPL 30 (heliocentric ecliptic J2000)
Element | Value | Uncertainty (1-sigma) | Units |
e | .1671323606200936 | 3.2193e-08 | |
a | 2.2215220345499 | 7.9489e-09 | au |
q | 1.850233812746022 | 7.2355e-08 | au |
i | 6.324742160251275 | 4.2565e-06 | deg |
node | 47.12811253540433 | 2.9272e-05 | deg |
peri | 222.4877989945245 | 3.242e-05 | deg |
M | 268.748321914893 | 1.5478e-05 | deg |
tp | 2459307.058049134638 (2021-Apr-02.55804913) | 5.2905e-05 | TDB |
period | 1209.412254156468 3.31 | 6.4911e-06 1.777e-08 | d yr |
n | .2976652491842744 | 1.5976e-09 | deg/d |
Q | 2.592810256353777 | 9.2774e-09 | au |
|
| | Orbit Determination Parameters
Additional Information
|